Theta_e
342 341 341 341 341 341 340 340 340 341 340 340 341 342 341 342 341 340 340 338 337 336 336 334 331 327 324 323 324 325 320 313 321 326 326 331 333 332 333 333 334 334 334 335 335 335 335 335 336 335 335 335 335 334 334 335 334 333 332 331 333 334 334 334 333 330 326 322 319 316 317 323 323 322 320 316 315 318 323 329 332 332 331 329 330
342 341 341 341 341 341 340 340 340 340 341 341 341 342 341 340 340 340 340 338 337 335 335 334 332 329 324 323 326 328 326 318 321 326 327 330 332 332 333 333 333 333 333 334 334 334 334 334 335 335 336 336 334 334 333 333 331 329 330 330 331 331 331 330 329 327 325 325 324 317 318 327 328 328 327 324 320 316 322 328 330 330 330 329 326
341 342 341 341 341 341 340 340 339 340 341 340 341 341 340 339 340 340 338 337 335 334 334 334 333 328 320 322 328 330 328 323 322 326 327 330 331 331 332 332 332 332 332 333 333 333 333 334 334 334 334 334 333 332 331 330 329 328 329 329 330 330 330 329 327 324 323 327 329 326 325 328 329 329 329 328 326 320 323 328 329 329 329 330 328
341 342 341 341 340 340 339 340 340 339 339 339 340 339 339 339 339 339 337 336 334 333 333 333 331 323 318 322 328 330 328 325 324 326 328 329 329 330 331 331 331 331 331 331 332 331 332 334 334 334 332 332 331 330 329 329 328 327 328 328 328 328 329 328 326 322 321 326 329 330 329 329 329 329 329 329 328 325 326 327 328 328 328 329 329
341 342 341 341 339 340 339 340 340 338 338 337 338 337 338 338 338 337 335 334 332 332 333 334 330 322 320 322 328 330 328 326 325 326 328 329 328 328 329 331 331 330 331 330 331 330 331 333 334 333 331 330 329 328 328 328 327 326 326 325 325 324 324 323 322 320 321 326 329 329 329 328 328 328 329 328 328 327 327 327 327 327 328 328 328
341 341 342 341 340 340 339 340 339 339 337 335 335 335 336 336 337 336 333 332 331 332 333 334 329 322 322 323 326 328 327 325 323 324 328 329 328 327 328 330 331 330 331 330 330 330 331 333 333 332 330 329 327 326 327 327 325 324 324 322 321 319 318 317 320 323 325 328 329 328 328 327 327 327 328 328 328 327 327 327 326 327 327 327 327
340 340 342 341 341 340 339 340 339 340 338 336 336 336 336 335 336 335 332 331 330 332 334 333 328 323 323 322 323 325 324 323 320 321 327 328 327 327 329 330 330 330 330 330 330 330 332 332 332 331 328 327 326 326 327 327 325 323 322 320 318 316 315 317 323 326 327 328 327 327 327 326 326 327 327 327 327 327 327 327 327 326 326 326 326
340 340 342 341 341 340 339 339 339 340 339 339 338 338 337 332 333 333 332 331 331 333 335 332 326 324 325 322 320 322 321 319 318 321 327 328 327 328 329 330 330 330 330 330 330 330 331 331 331 329 327 326 326 326 326 326 325 323 321 319 316 315 317 321 325 326 326 327 326 326 326 326 326 326 327 327 326 326 326 326 326 326 326 325 325
340 340 341 341 341 340 339 339 340 340 339 339 338 339 337 331 332 332 331 330 331 334 335 331 325 325 326 323 320 320 318 316 315 319 326 328 327 328 329 329 329 329 329 329 329 330 330 330 330 329 328 326 325 326 326 325 324 323 319 316 315 318 322 325 326 326 326 326 326 326 326 326 326 326 326 326 325 325 325 325 325 325 325 324 324
340 340 340 341 341 340 340 339 339 340 339 339 339 339 334 330 331 331 331 330 331 335 336 331 325 327 327 324 321 319 317 314 313 317 323 325 327 328 328 328 328 328 328 328 328 329 329 329 329 329 328 326 325 326 326 325 323 321 316 315 318 322 325 325 326 326 326 326 326 326 326 326 325 326 326 326 325 325 325 325 324 324 325 324 325
341 340 340 341 341 340 340 340 339 340 339 339 339 339 333 326 327 328 329 329 331 335 336 331 327 329 329 325 323 319 316 311 311 316 321 324 327 327 328 327 327 328 327 328 328 329 329 329 329 329 328 326 325 325 325 324 321 318 315 318 321 324 325 325 326 326 326 326 326 326 326 326 326 326 326 326 325 325 324 325 325 324 325 325 325
341 340 340 341 341 341 340 340 340 339 338 339 339 339 334 325 324 326 328 328 330 335 335 333 329 330 329 327 324 320 317 310 305 309 316 322 327 327 327 327 327 328 327 328 327 328 328 328 329 328 327 325 325 324 324 323 320 318 316 319 322 324 325 325 326 326 326 326 326 326 326 326 327 327 326 326 325 325 326 325 325 325 325 325 325
342 341 341 341 340 341 340 340 340 339 338 339 339 339 337 328 323 325 330 329 330 334 335 334 332 331 330 328 325 322 320 314 305 303 307 314 323 327 327 327 327 327 327 327 327 328 328 328 327 327 326 325 324 324 323 322 321 319 318 319 321 324 325 325 326 326 327 326 327 328 327 328 328 327 327 327 326 327 327 327 326 326 326 326 326
341 341 341 341 341 341 340 341 339 339 339 340 339 339 338 333 327 329 332 330 329 333 334 334 333 332 331 329 327 323 322 318 310 304 304 306 315 323 325 326 326 326 326 327 327 327 326 326 326 326 325 324 324 323 323 322 321 320 320 321 321 323 324 325 325 326 327 327 328 329 329 329 328 328 327 327 327 327 327 327 326 327 326 326 326
341 342 342 341 341 341 341 341 340 340 340 340 340 339 339 337 334 333 333 331 330 332 334 334 333 332 331 331 329 326 323 321 316 309 305 304 308 314 319 323 324 324 325 325 325 324 324 324 324 323 324 324 323 323 322 322 321 320 322 323 322 323 324 324 324 325 326 326 327 328 328 328 327 327 327 327 327 326 326 326 326 326 325 325 326
341 341 342 341 341 341 341 341 340 340 340 340 339 339 339 337 337 337 334 331 331 331 332 333 333 332 332 331 330 328 324 322 321 315 308 304 305 307 311 316 320 321 321 321 320 320 321 321 322 322 323 323 322 322 321 321 321 320 322 323 322 322 323 323 323 324 325 325 325 326 326 327 327 327 327 327 327 327 327 325 325 325 325 324 324
341 341 341 341 341 341 342 341 341 341 340 341 340 340 339 337 337 337 336 333 331 332 331 333 332 333 333 332 331 329 327 324 323 320 314 307 303 303 304 307 311 313 312 311 310 310 311 313 315 317 318 320 321 321 320 321 319 317 320 321 321 320 322 323 322 323 323 323 322 322 323 324 325 325 325 325 325 326 325 325 324 324 324 323 322
341 341 342 341 341 341 341 341 341 341 340 340 340 340 339 339 338 337 336 334 332 332 331 332 333 333 333 332 331 330 329 325 324 322 320 314 307 302 301 301 303 304 303 302 302 302 302 303 304 305 308 313 317 319 319 319 316 314 316 318 318 316 318 322 322 321 321 321 320 320 321 321 322 323 322 322 323 323 323 323 323 323 323 321 320
341 340 341 341 340 340 340 341 340 340 340 340 340 339 339 339 339 337 336 335 333 333 332 332 333 333 332 332 331 331 330 327 325 324 322 320 314 309 305 303 301 300 300 301 301 300 300 300 300 300 302 306 312 316 318 317 314 313 313 314 312 309 314 321 321 320 320 320 320 320 321 321 321 321 321 321 320 320 320 321 320 321 320 320 319
340 340 340 340 340 341 340 340 340 339 340 340 340 339 339 339 339 337 336 335 334 334 332 331 332 333 332 332 332 331 330 328 326 324 323 322 319 316 313 311 308 305 302 300 300 300 300 300 300 300 300 302 306 311 314 314 312 311 310 308 306 309 317 321 321 320 320 319 321 321 322 322 322 321 321 321 320 320 319 319 319 318 319 319 319
339 339 340 340 340 341 340 340 339 339 340 340 340 340 339 339 339 338 337 336 335 334 333 332 332 332 332 332 332 331 330 329 326 324 323 322 320 319 318 317 315 311 307 302 301 300 300 300 300 300 300 300 301 305 308 309 309 308 307 306 308 315 320 321 321 322 321 322 322 322 323 322 322 322 322 321 321 321 320 320 319 319 320 320 320
339 337 338 339 340 340 339 339 340 341 340 338 339 340 340 339 339 338 338 337 336 335 334 333 332 332 332 332 332 331 330 329 326 324 323 322 320 320 320 319 317 315 311 306 302 301 300 299 299 299 299 299 300 302 305 307 307 306 305 308 313 318 319 320 320 321 322 322 322 322 323 322 322 322 322 321 321 321 320 320 320 320 320 320 320
338 337 336 337 338 339 338 337 337 339 339 338 339 339 339 339 339 338 338 338 337 336 335 334 333 333 333 333 332 332 331 329 327 325 323 321 320 321 321 320 318 316 313 308 304 302 300 300 300 299 299 299 299 302 304 305 305 306 307 311 316 318 319 319 319 320 321 322 321 322 322 321 321 322 321 320 320 320 320 320 320 320 319 319 318
337 337 336 336 338 338 337 335 334 335 336 337 338 338 339 339 339 339 338 338 337 337 336 335 334 334 333 333 333 332 331 329 328 326 323 321 320 321 322 321 319 317 315 311 306 303 302 301 301 301 301 301 301 301 303 304 306 308 310 314 316 318 318 319 319 319 319 320 320 321 321 321 321 321 321 319 319 320 320 319 318 318 317 316 315
336 336 335 337 337 336 336 336 336 336 336 335 335 338 339 338 337 338 338 338 338 336 336 336 335 334 334 333 333 332 330 329 328 326 324 322 320 320 320 319 318 317 315 312 308 305 304 304 305 306 307 308 308 307 307 308 310 311 313 314 315 316 317 318 318 318 318 318 318 319 319 320 320 320 320 319 318 319 319 318 317 316 315 315 314
335 334 335 336 335 334 336 337 338 337 336 335 336 338 338 337 336 337 338 337 337 337 336 336 335 335 334 333 333 332 330 329 328 327 326 324 322 321 320 318 318 316 314 312 308 307 308 309 311 312 313 315 315 314 314 313 313 313 313 313 313 314 315 316 316 316 316 316 316 317 317 318 318 319 319 319 318 318 318 317 317 316 315 315 314
334 334 334 335 334 334 335 335 335 335 335 336 337 336 336 336 336 337 337 337 337 336 336 336 335 335 334 333 332 332 331 329 328 327 326 326 324 322 321 321 319 317 314 312 310 310 312 313 315 316 316 316 316 315 315 314 313 312 311 311 310 310 311 312 314 314 314 314 315 315 316 316 317 317 317 317 318 317 316 316 316 316 315 314 313
334 334 333 333 334 335 334 333 333 333 333 334 335 333 332 334 336 336 336 335 336 336 335 335 335 335 335 333 332 332 331 329 328 327 326 326 325 322 321 322 321 319 316 314 313 313 314 315 316 317 316 316 315 314 314 313 311 311 310 309 308 307 307 308 310 312 312 312 313 313 313 313 314 315 315 315 315 316 315 314 314 314 314 313 312
333 334 334 333 334 334 333 332 331 332 332 330 330 330 330 334 336 336 335 333 335 336 334 334 335 334 335 333 332 332 331 330 329 328 327 326 325 323 322 322 322 321 318 316 315 315 315 316 317 317 315 314 314 313 313 312 310 309 308 307 306 305 304 305 306 308 309 310 310 310 311 311 311 312 312 312 313 313 313 313 313 312 312 312 312
331 332 334 335 335 334 334 333 332 331 331 329 328 329 331 336 338 335 334 331 333 336 334 333 333 334 335 334 333 331 330 330 329 328 327 326 325 324 323 323 322 322 320 318 317 317 316 316 316 316 314 312 312 312 311 309 308 307 306 305 304 302 300 300 301 303 305 305 306 306 307 308 309 310 310 311 311 311 311 311 311 311 311 311 310
328 329 331 333 334 334 334 333 331 330 331 331 330 331 333 336 337 335 334 332 333 336 335 334 334 333 334 334 333 331 331 329 329 329 328 327 326 324 324 323 322 322 321 319 318 317 317 316 316 316 313 310 308 308 308 306 305 304 303 302 301 298 296 295 295 296 298 298 299 300 301 302 305 307 308 309 309 310 310 310 309 310 310 309 309
327 328 328 329 331 331 331 330 328 327 330 331 331 332 333 333 335 334 334 334 335 336 335 334 335 333 332 334 333 331 331 330 329 329 328 328 326 325 324 323 323 322 322 321 319 318 317 316 316 316 313 308 305 304 305 304 302 301 300 299 297 295 293 292 292 293 293 293 294 295 295 296 297 300 302 303 305 306 307 308 308 308 308 308 308
326 327 326 326 328 328 328 328 327 326 327 328 329 331 332 332 333 333 333 333 334 335 333 332 335 334 332 334 334 332 331 330 330 330 329 328 327 325 324 323 323 323 322 320 320 319 317 317 316 316 313 307 304 303 303 302 299 298 298 297 295 293 292 292 292 292 292 292 292 292 292 293 293 293 294 296 299 301 303 305 306 306 306 306 306
324 324 325 325 327 327 327 327 327 326 325 325 326 327 330 331 331 332 332 332 329 330 332 332 332 332 332 334 334 332 332 330 330 330 330 329 327 326 324 324 324 323 322 320 320 319 318 317 315 314 311 306 303 300 300 300 297 296 296 295 294 292 292 292 292 292 292 292 292 292 292 292 292 292 292 292 293 296 298 300 302 304 305 305 305
321 322 324 325 326 327 327 327 327 327 326 326 325 325 327 328 330 330 331 330 327 329 333 332 331 330 332 334 334 332 332 331 330 330 330 328 327 326 324 324 324 323 322 320 320 318 317 316 314 314 310 304 301 297 297 298 295 295 295 294 293 292 291 292 292 292 292 292 292 292 291 291 291 290 290 290 290 291 292 294 295 298 302 303 304
319 319 321 323 324 324 325 325 324 324 324 324 324 325 326 325 327 328 328 328 329 331 333 332 331 331 332 333 333 333 332 331 330 330 330 329 327 327 325 324 324 323 321 320 319 318 317 315 313 312 309 304 300 296 296 296 295 295 294 293 292 291 291 291 292 292 292 291 291 291 290 290 290 290 289 289 289 289 289 289 290 292 295 298 300
318 318 318 319 320 320 320 320 319 319 318 319 319 320 323 324 324 326 327 327 328 330 332 333 331 331 332 331 332 333 332 331 330 330 330 329 328 328 327 325 324 323 320 319 318 317 316 315 313 310 308 305 301 296 295 294 295 295 293 293 292 291 291 291 291 291 290 290 290 289 289 289 289 289 289 288 288 288 288 288 288 288 289 291 293
317 317 317 317 317 317 317 316 316 315 315 314 313 314 318 322 323 324 327 327 327 326 329 332 332 331 332 331 332 333 331 330 330 330 330 329 328 328 327 325 324 322 319 318 318 316 315 315 313 308 306 306 302 298 296 294 294 294 292 292 292 291 291 290 290 289 289 289 289 289 288 288 288 288 288 288 288 287 287 287 288 288 288 288 288
315 317 317 316 316 316 316 315 314 314 313 312 314 315 317 321 323 323 326 328 328 327 327 331 331 332 332 331 332 332 331 330 329 330 330 329 328 328 327 325 322 320 318 317 316 315 313 313 312 309 305 303 302 301 298 295 294 293 292 291 291 290 289 289 289 288 288 288 288 288 288 288 288 288 287 287 287 287 287 287 287 287 287 287 287
313 315 315 316 316 316 315 315 314 313 313 313 315 317 317 321 323 322 325 328 329 327 328 331 331 331 331 332 332 332 332 330 329 330 331 330 328 328 327 325 323 319 318 318 316 315 313 312 311 309 306 302 300 301 299 296 294 292 290 289 289 288 288 288 288 288 288 288 288 288 288 288 287 287 287 287 287 287 287 287 287 287 287 287 286
312 313 313 314 315 315 314 314 313 313 313 314 315 316 316 320 323 323 325 326 327 327 327 329 330 330 330 331 332 332 332 330 329 330 330 328 327 327 326 325 323 321 320 320 319 315 313 312 310 307 306 304 300 297 298 298 294 291 290 288 287 287 287 287 287 287 287 287 287 287 287 287 287 287 287 287 287 287 287 287 287 286 286 286 285
311 312 312 313 314 314 313 313 313 312 313 314 314 315 316 320 322 323 324 325 325 326 326 327 328 328 328 329 329 330 331 330 329 330 328 327 326 326 325 325 324 322 321 320 318 315 312 312 310 305 303 303 301 298 299 300 296 292 291 290 288 288 287 286 286 286 286 287 287 287 287 287 287 287 286 286 286 286 286 286 286 286 285 285 285
310 311 312 313 313 313 313 313 312 312 313 314 314 315 317 319 321 322 323 324 325 325 324 326 326 326 327 326 327 328 329 328 327 327 327 326 326 326 325 324 324 321 318 316 314 313 312 312 312 308 303 299 298 298 300 300 297 293 293 292 292 291 289 287 287 286 286 286 286 286 286 286 287 286 286 286 286 286 286 285 285 285 285 285 285
310 311 312 313 313 313 313 313 312 312 313 314 314 315 317 319 320 322 323 324 324 324 324 324 324 324 325 325 325 327 327 326 326 326 326 325 324 324 323 322 322 321 319 316 314 312 312 312 311 311 308 300 294 296 300 300 296 295 295 296 295 294 294 291 289 286 285 285 286 286 286 286 286 286 285 285 285 285 285 285 285 284 284 285 285
310 310 311 312 313 313 312 313 312 311 313 314 314 315 317 319 319 320 321 320 320 322 322 322 323 323 324 324 325 326 325 325 325 325 325 324 323 322 322 321 322 321 320 318 316 314 314 314 312 311 312 307 298 296 299 300 297 296 299 299 297 298 298 293 290 288 286 286 286 285 286 285 285 285 285 285 285 285 285 284 284 284 284 284 284
308 309 311 312 312 313 313 313 312 311 313 314 313 314 316 318 319 319 317 316 317 319 321 321 322 323 324 324 324 324 324 323 323 322 322 322 323 322 321 321 321 321 319 318 318 317 316 315 313 312 312 311 306 299 298 299 298 297 299 300 299 301 299 293 292 291 287 286 285 284 285 285 285 285 284 285 285 285 284 284 284 284 284 284 284
308 309 311 312 312 313 312 313 312 311 312 313 313 314 316 317 319 319 317 316 316 318 320 321 322 323 323 323 323 323 322 321 321 320 320 320 322 323 321 320 321 320 318 317 318 318 317 316 314 314 312 310 308 302 298 298 298 297 298 298 298 299 296 293 294 293 289 287 286 285 285 285 285 285 284 284 284 284 284 284 284 284 284 284 284
308 309 311 311 312 312 312 312 312 311 312 312 313 315 316 316 317 318 318 318 318 318 318 319 320 321 321 322 322 321 321 321 320 319 319 319 321 322 320 319 319 319 317 317 319 319 318 317 315 313 311 310 310 305 300 299 298 297 297 297 297 296 295 295 295 294 293 290 287 286 285 284 284 284 284 284 284 284 284 284 284 284 284 284 283
308 308 309 310 311 312 312 312 312 311 311 311 313 315 316 316 317 317 317 318 318 318 318 318 319 319 319 320 321 321 321 320 319 319 318 319 321 321 320 318 318 318 318 319 320 318 317 317 315 312 310 310 310 306 302 302 301 298 297 297 296 295 294 294 294 294 294 293 290 288 286 284 284 284 284 284 284 284 284 284 284 284 283 283 283
307 307 309 310 311 311 312 312 312 311 310 310 312 315 315 316 316 316 316 317 318 317 317 318 318 319 318 318 319 320 320 320 320 319 318 318 320 320 319 319 319 318 318 319 319 317 316 316 316 313 311 310 309 305 303 304 303 299 298 297 296 294 293 293 293 293 293 293 292 289 287 286 286 286 284 283 284 284 284 284 284 283 283 283 283
306 307 309 310 311 311 311 312 311 311 310 309 311 313 314 314 314 314 315 317 317 315 315 316 317 318 317 317 318 319 319 319 320 319 318 318 319 319 318 318 318 318 317 317 317 317 316 316 315 314 312 311 309 305 304 304 303 300 299 297 296 295 294 294 293 292 292 293 292 291 289 287 288 287 285 283 283 283 284 283 283 283 283 283 283
Wind_Speed
11 11 13 14 14 13 13 13 12 13 13 14 13 13 14 15 16 16 17 16 15 15 14 16 17 16 16 14 15 15 16 16 15 15 16 18 17 16 17 17 17 17 18 18 19 19 20 20 21 20 19 19 20 20 20 20 20 20 21 21 22 22 21 22 23 23 23 23 25 25 25 25 25 25 25 24 24 23 25 25 23 23 23 22 22
13 13 13 14 16 14 13 13 13 13 13 13 13 14 15 15 15 15 15 15 15 14 14 15 15 15 14 14 15 15 15 16 16 15 16 18 17 16 16 17 17 17 17 18 18 19 19 20 20 19 18 19 19 20 20 20 20 20 21 21 21 21 21 21 21 21 22 24 24 26 26 27 26 26 26 26 26 26 27 27 26 24 23 23 23
15 13 12 14 16 15 14 15 14 14 13 13 14 14 15 15 15 15 15 15 14 13 13 13 14 14 15 16 15 15 15 15 16 16 16 17 17 17 17 17 17 17 17 18 18 18 19 19 19 18 18 19 19 20 20 20 20 20 20 20 20 20 20 20 20 21 24 24 23 24 26 27 27 26 26 26 26 27 27 27 27 25 24 24 25
15 13 12 14 16 16 15 16 15 14 14 13 13 15 15 14 14 14 14 14 14 14 13 13 14 15 16 17 15 15 15 15 16 17 16 17 16 17 17 17 18 18 18 18 18 18 19 19 18 18 18 18 19 19 19 19 19 19 19 19 18 18 18 19 19 20 24 25 23 22 23 25 26 26 26 26 26 27 27 27 26 25 25 26 26
14 12 13 13 14 17 16 15 17 16 14 14 14 14 14 13 13 13 14 13 14 14 14 13 15 16 17 17 15 15 15 15 16 17 17 17 16 16 18 18 18 18 18 18 18 18 19 18 18 18 18 18 18 19 19 19 18 18 18 17 17 18 18 18 19 21 24 25 23 22 22 23 25 25 25 26 26 27 28 27 27 26 26 27 27
14 12 13 12 13 16 16 16 16 16 14 15 14 14 13 12 13 13 13 12 14 14 14 14 15 17 17 17 15 15 15 15 15 17 18 17 17 17 18 19 19 19 19 18 18 19 19 18 18 18 18 18 18 19 19 19 19 19 18 18 18 18 19 20 22 23 23 23 22 22 22 22 24 25 24 25 26 27 27 27 28 28 27 26 27
13 12 13 12 13 15 16 16 16 15 15 16 15 14 13 13 13 13 13 13 14 14 14 14 15 17 17 16 16 15 14 15 16 18 18 17 18 18 19 20 19 20 19 19 19 19 19 19 18 18 18 18 19 19 19 19 19 19 19 19 19 20 21 23 25 24 22 20 20 21 22 22 25 25 24 24 24 25 26 27 28 28 28 27 27
13 13 13 12 12 14 16 16 15 15 15 15 14 14 13 13 15 14 14 14 15 14 14 14 16 17 17 16 16 15 15 15 16 18 19 18 19 19 20 20 20 20 20 20 20 20 19 19 19 18 18 18 19 19 19 19 19 20 19 19 19 20 23 25 25 24 22 21 21 21 22 22 24 25 24 24 24 24 24 25 27 28 29 29 29
14 14 13 11 11 14 15 15 15 14 14 13 13 13 12 13 16 16 15 14 15 15 14 14 16 17 16 16 15 15 15 15 16 18 19 18 19 20 20 20 20 20 20 20 20 20 20 20 19 19 19 19 19 20 19 19 19 19 19 20 21 23 25 25 24 23 23 23 23 22 21 22 23 24 24 24 24 25 25 25 26 27 28 29 29
15 15 14 11 12 14 14 14 14 14 14 13 13 12 11 13 16 16 15 15 15 15 14 14 15 16 16 16 15 15 15 16 17 18 19 19 20 20 20 20 20 20 20 20 20 20 20 20 19 19 19 19 19 19 18 19 19 20 21 23 25 27 27 25 23 23 23 23 24 23 22 22 23 23 23 23 24 25 26 25 26 26 27 28 28
15 15 14 12 14 15 14 14 14 14 14 14 13 12 10 13 15 16 15 15 16 15 14 13 14 15 15 15 14 14 15 16 17 18 19 19 20 20 20 20 20 20 20 20 20 20 20 20 19 19 19 19 19 19 19 19 20 22 23 25 25 28 28 24 24 24 23 23 23 23 24 23 23 22 22 23 23 24 25 25 25 25 25 26 27
15 15 14 14 15 16 15 15 15 15 14 14 14 13 11 12 14 15 15 16 15 15 14 13 13 13 15 14 14 14 15 16 17 17 18 19 20 20 20 20 20 20 20 20 20 20 20 19 18 18 18 18 18 19 19 20 21 23 25 26 26 28 28 24 24 24 23 22 22 22 23 23 23 22 22 22 22 23 23 23 24 24 25 25 25
15 15 14 14 16 16 16 15 15 15 14 14 14 14 13 12 13 14 15 15 15 15 14 13 12 13 14 14 14 14 14 15 16 17 17 19 20 20 20 20 20 20 21 20 20 20 19 19 18 18 18 18 19 19 19 20 22 23 25 28 29 30 28 25 24 24 23 22 22 21 22 22 21 20 21 21 21 22 22 23 24 24 24 24 25
15 15 14 14 16 16 16 15 14 14 14 13 13 14 14 13 13 13 14 14 15 14 14 13 12 12 13 13 13 14 14 14 15 17 17 18 19 19 19 20 20 20 20 20 19 19 19 19 18 18 18 19 19 19 20 21 21 23 24 26 29 30 27 25 25 24 23 23 23 21 21 22 20 20 21 21 21 22 23 23 23 23 23 24 24
15 15 14 15 17 17 16 15 15 15 15 13 13 14 14 14 13 13 13 13 14 14 13 13 12 12 12 13 13 13 13 13 14 16 17 17 18 19 19 19 20 20 19 19 19 20 20 19 18 18 18 19 19 19 20 21 22 23 25 25 27 28 25 22 24 24 22 22 23 22 22 22 22 22 23 23 23 23 23 23 24 24 24 24 25
14 15 14 14 16 16 16 15 16 15 15 14 14 14 14 14 13 13 13 13 13 13 13 12 12 12 12 12 12 12 12 12 14 14 16 17 17 18 19 19 20 19 19 19 19 19 20 19 18 18 18 19 19 20 21 21 22 23 24 24 25 27 26 22 22 23 21 21 21 21 22 23 23 23 23 24 25 24 24 24 24 24 24 24 24
15 15 14 14 15 15 14 14 15 16 15 14 14 14 14 14 14 13 13 13 13 12 12 11 11 11 11 11 11 11 11 12 13 13 15 16 17 18 18 19 19 19 19 18 18 18 19 19 19 19 19 19 20 20 21 21 21 21 22 23 23 26 26 23 22 22 21 21 21 21 22 22 22 22 22 23 24 24 24 24 24 24 24 23 23
14 15 14 15 15 15 14 13 14 15 15 15 14 14 14 15 14 14 13 12 12 12 12 11 11 12 12 11 11 11 11 11 12 13 14 15 16 17 17 17 17 17 17 18 18 19 19 20 19 20 20 20 20 20 20 20 20 20 20 21 21 24 27 24 22 22 21 22 22 22 22 22 23 23 23 23 23 23 24 24 24 23 24 24 24
13 15 15 15 16 15 15 14 14 13 14 14 14 15 15 14 15 14 13 13 12 12 12 12 12 12 12 12 11 10 10 11 11 12 13 14 15 16 17 17 17 16 17 17 18 19 19 20 20 20 20 20 20 20 20 19 19 19 19 20 21 24 26 24 22 22 21 22 23 22 22 22 23 24 24 24 24 24 23 24 24 25 25 25 26
14 15 15 16 16 15 15 15 14 13 13 13 13 15 15 15 14 15 14 14 13 13 13 13 13 12 12 12 11 11 10 10 11 12 13 13 14 16 17 17 17 17 17 18 18 18 19 19 20 20 21 20 20 20 20 20 19 19 20 21 23 26 26 23 23 22 22 23 23 22 21 21 22 22 23 23 23 23 23 24 24 24 25 25 25
16 17 17 18 16 15 15 14 14 14 14 14 13 14 15 14 14 15 15 14 14 14 14 14 14 13 12 12 11 11 11 11 11 12 13 13 14 15 16 17 17 18 18 18 18 18 19 19 20 20 21 21 21 21 21 20 20 20 20 22 24 28 26 22 21 22 22 22 21 21 21 20 20 21 22 23 23 23 24 24 24 24 24 23 24
16 19 20 21 19 17 16 14 13 13 14 14 13 13 14 15 15 15 15 15 15 15 15 14 14 14 13 12 11 11 11 12 12 13 13 13 14 15 16 17 18 19 19 19 19 19 19 20 21 21 21 22 23 23 22 21 21 20 20 23 26 28 28 25 22 21 19 18 19 21 20 19 20 22 23 23 23 23 24 24 24 24 23 23 25
17 19 20 21 20 19 18 15 15 14 14 14 13 14 15 15 15 14 15 16 16 16 15 15 15 14 13 12 11 11 10 11 12 12 14 14 15 16 16 17 18 18 19 20 20 20 20 21 21 22 22 23 24 24 23 23 21 21 21 24 26 27 28 28 26 25 23 20 20 21 20 21 22 23 23 23 22 22 23 23 23 24 23 24 25
18 18 19 21 21 20 18 17 18 17 16 16 14 14 16 16 14 14 16 17 17 18 17 16 15 14 14 13 12 12 11 12 13 12 14 15 16 16 16 16 17 17 19 20 20 21 21 22 22 23 24 24 25 24 24 24 22 22 23 24 24 24 26 28 28 28 27 26 24 22 22 22 23 22 21 22 22 22 22 22 22 22 22 24 24
17 16 18 21 21 19 17 17 17 17 17 16 14 15 18 17 17 17 17 18 18 19 18 17 16 16 15 14 13 13 13 14 14 13 14 16 17 17 17 17 17 17 18 20 21 22 22 23 24 25 26 26 25 25 24 24 23 23 23 22 22 22 23 26 27 28 27 27 25 23 23 22 22 22 21 21 21 21 21 23 23 22 22 23 24
19 16 18 22 21 19 19 18 17 16 16 16 16 17 19 18 18 18 18 19 19 19 19 18 17 16 15 14 15 15 15 16 16 15 14 15 17 17 17 17 17 18 19 21 22 23 24 25 26 26 26 26 25 24 23 23 22 22 21 21 21 21 22 23 25 26 27 26 26 25 24 23 21 20 20 21 21 20 21 23 24 24 23 23 24
22 17 16 22 23 23 23 21 19 18 17 17 18 17 19 19 18 18 19 18 18 19 18 18 16 15 15 14 16 17 17 18 17 18 16 15 16 17 17 17 17 19 20 22 24 24 25 25 25 26 25 24 23 22 22 21 21 21 20 20 20 20 20 21 22 25 25 25 25 25 24 23 21 20 20 20 21 20 21 22 23 24 24 24 23
23 21 20 24 26 26 24 22 22 20 18 19 17 16 19 20 21 21 20 19 20 20 19 18 18 16 16 15 16 18 19 18 18 20 18 15 16 18 18 17 16 18 20 22 24 25 25 25 25 25 24 23 22 21 21 21 21 20 20 20 19 19 19 20 20 22 24 23 23 24 24 23 21 21 20 20 20 20 21 21 21 22 22 22 22
24 24 25 27 27 28 26 25 24 21 20 20 18 19 20 20 24 24 21 21 22 22 20 19 19 18 18 17 17 19 20 18 19 20 20 18 18 19 18 19 17 16 19 21 23 25 25 25 25 24 23 22 22 21 20 21 21 20 19 19 19 18 19 19 19 20 22 22 22 23 24 24 21 20 20 20 19 19 20 20 20 20 20 20 21
24 22 25 27 27 28 26 25 26 24 22 21 20 22 20 18 23 23 21 21 22 23 22 22 22 20 19 19 18 19 20 19 19 20 22 22 21 21 19 20 19 17 18 21 23 24 25 26 25 23 22 23 23 22 21 22 22 20 20 19 19 19 19 20 20 20 21 22 22 21 22 24 23 21 20 20 19 19 19 19 19 19 19 19 20
22 23 25 27 27 25 24 25 27 26 24 23 22 21 17 16 19 20 20 23 24 23 23 25 26 23 20 20 19 20 20 19 19 21 23 24 23 23 22 21 21 18 19 21 24 24 25 26 25 23 22 23 24 24 23 23 22 21 20 20 20 20 20 21 21 22 21 21 21 19 19 20 21 21 21 21 20 20 20 20 18 18 18 19 18
23 23 23 27 29 26 26 26 26 25 25 23 23 24 20 16 18 18 17 22 24 21 20 24 25 23 21 23 23 21 19 19 20 22 24 26 26 26 24 23 22 20 21 22 24 25 26 26 24 22 22 24 25 25 25 24 23 22 21 20 20 20 21 21 21 21 21 20 19 19 17 17 16 16 17 18 19 19 20 20 19 18 18 17 17
27 25 22 26 29 29 28 28 26 25 26 25 23 24 22 18 20 20 19 21 24 22 24 24 23 21 23 27 27 22 19 19 21 23 25 28 28 28 27 26 23 22 23 23 24 25 25 25 24 23 23 25 26 26 26 25 24 23 22 21 20 20 20 20 20 19 19 19 18 17 16 15 14 12 12 14 16 17 18 19 19 19 18 17 17
28 28 28 28 28 29 29 29 28 26 26 27 25 22 19 18 17 20 24 26 24 26 28 28 26 24 25 29 27 23 21 19 21 26 27 28 29 30 30 28 25 24 25 25 25 25 25 26 25 25 26 26 26 26 25 26 25 24 22 21 20 20 19 19 18 18 17 17 16 15 14 13 13 12 12 11 12 14 15 16 17 18 18 17 17
28 30 31 29 28 30 30 29 29 28 27 27 27 24 20 18 16 16 25 29 26 27 30 31 29 25 23 26 25 25 24 18 19 26 28 29 30 31 31 31 28 26 27 27 27 28 27 27 27 27 27 28 26 23 24 26 25 24 22 21 20 19 18 17 16 16 15 15 14 14 13 13 13 13 13 12 11 11 11 12 14 16 17 17 17
28 29 29 28 29 30 30 30 29 29 29 28 28 27 21 18 18 17 21 26 25 25 29 31 29 25 23 24 25 26 25 20 19 22 25 29 32 32 33 33 31 29 30 30 29 30 29 29 29 29 29 30 27 22 23 27 25 24 22 20 19 18 17 16 15 14 14 14 13 13 13 13 13 13 13 13 12 11 10 10 10 12 14 15 16
28 28 28 29 29 29 29 29 28 28 28 27 27 29 24 18 21 23 21 24 25 24 27 31 28 26 25 25 26 26 26 22 21 21 23 28 33 34 33 34 33 32 32 32 31 31 31 30 30 30 30 30 29 25 25 27 25 23 21 19 18 17 16 15 14 14 14 14 14 14 14 13 13 13 12 12 12 11 10 10 9 9 11 12 13
27 27 28 29 28 29 29 28 27 26 26 26 25 27 24 21 24 27 24 25 27 26 27 29 27 26 27 28 28 29 27 25 23 23 23 28 34 35 34 35 35 35 35 33 32 32 32 32 31 31 30 30 30 28 27 27 25 23 21 19 18 16 15 15 14 14 14 14 13 13 14 13 12 12 12 11 11 11 10 10 9 9 9 10 10
28 27 27 28 28 28 28 28 27 25 24 22 19 19 21 23 26 27 26 28 28 27 27 29 28 27 28 29 31 31 29 27 25 24 24 28 33 35 34 34 35 36 36 35 33 32 33 33 32 32 31 30 29 28 28 28 25 23 21 19 17 16 15 14 14 14 14 13 13 13 13 12 12 11 11 10 10 10 9 9 8 9 9 9 9
29 28 28 28 29 29 28 27 26 25 22 17 14 16 21 25 27 27 28 29 29 27 27 29 28 27 28 29 31 32 30 28 25 24 27 30 34 35 33 31 33 35 37 36 35 35 35 34 33 33 32 30 29 28 28 27 26 22 20 18 16 15 14 14 14 14 13 13 12 13 12 11 11 10 9 9 8 8 8 7 7 8 9 8 8
30 30 30 31 31 30 28 27 25 23 20 18 16 18 25 27 28 29 29 29 30 28 26 26 27 28 29 30 30 30 29 28 25 25 28 30 32 33 30 30 31 34 35 35 36 36 37 36 34 33 32 30 30 29 29 28 25 19 15 14 13 12 12 12 13 12 12 13 13 12 11 11 10 9 8 8 7 7 7 7 7 7 8 8 8
32 33 33 32 31 29 29 27 25 24 22 19 17 20 26 29 30 31 30 29 28 27 26 26 27 28 28 30 31 30 28 27 26 25 26 26 27 29 28 27 29 33 34 34 36 37 38 37 37 34 31 31 31 31 30 25 18 16 15 13 9 7 8 9 10 12 12 12 12 11 10 10 10 10 9 8 7 7 7 7 7 7 7 7 7
30 33 32 30 30 30 29 27 27 26 22 19 19 21 25 28 30 31 30 29 27 27 27 26 25 25 27 30 31 29 27 26 25 24 25 25 26 27 26 25 27 33 35 35 37 39 39 39 39 36 32 31 31 33 31 22 15 17 15 9 7 6 5 6 7 8 11 11 10 11 10 10 10 10 10 9 8 7 7 7 6 6 6 6 6
25 28 30 30 31 32 31 29 28 26 21 19 20 22 24 27 29 29 29 28 27 29 28 26 24 25 27 29 29 28 27 26 25 24 25 25 26 27 26 25 28 33 36 37 39 41 41 40 39 37 35 33 31 32 31 24 21 20 12 5 7 6 4 7 8 6 8 10 10 11 11 11 11 10 10 10 9 8 7 6 6 5 5 5 5
26 30 34 34 33 32 30 28 27 25 20 19 22 24 26 29 28 27 26 26 26 29 29 27 27 28 31 31 29 28 26 24 24 23 23 23 25 26 26 27 30 35 38 39 42 42 42 41 40 38 36 35 33 32 31 28 26 23 12 5 6 3 3 9 10 6 5 6 9 11 11 11 11 11 11 10 9 9 7 6 5 4 4 3 4
29 32 32 32 28 26 26 25 25 25 20 19 25 29 30 32 31 30 28 27 28 30 32 31 32 33 33 31 29 27 26 25 25 23 22 22 25 27 27 28 32 37 39 40 42 43 43 42 41 39 37 36 34 33 32 30 30 27 18 10 6 2 5 13 9 4 5 5 7 10 11 12 12 12 11 11 10 9 8 6 5 4 3 2 3
27 26 25 25 25 23 24 25 25 25 20 22 28 31 32 34 34 34 33 31 30 31 32 32 33 33 31 29 28 28 27 26 26 24 23 24 26 28 29 31 35 39 40 41 43 43 42 42 41 41 39 36 35 35 34 31 30 29 23 16 8 3 9 14 8 5 6 5 7 8 9 12 13 12 12 11 11 10 8 7 5 4 3 2 3
22 22 22 24 24 23 25 25 24 23 21 25 31 32 34 35 34 34 34 32 31 30 30 30 32 32 30 29 29 30 30 28 26 25 23 24 25 26 28 32 37 40 39 41 43 42 40 40 41 42 40 37 36 35 35 34 31 28 27 20 11 7 13 14 10 8 5 5 7 7 8 12 13 13 14 12 12 11 9 8 7 5 3 1 1
21 23 24 25 24 23 25 24 24 22 20 26 32 33 35 35 34 34 33 31 28 27 28 29 32 32 30 31 32 33 31 29 28 26 24 24 24 24 27 32 36 39 40 39 40 39 38 40 42 43 41 38 37 35 36 39 33 27 27 23 13 10 13 12 10 8 4 4 7 8 9 11 10 12 15 14 12 11 10 9 8 6 4 2 1
20 22 22 23 23 22 23 24 25 22 20 25 31 33 35 35 34 31 31 31 27 26 28 30 32 32 31 33 34 35 33 30 30 28 25 25 26 25 27 31 34 37 40 40 38 38 39 41 42 42 42 39 38 36 36 39 34 27 27 24 17 14 12 9 10 8 4 4 5 8 12 12 9 11 15 15 13 12 12 11 10 8 5 4 3
17 19 18 19 21 21 22 23 23 22 21 25 32 34 34 35 34 29 29 32 30 28 30 32 33 32 32 34 35 35 32 31 31 30 28 27 28 28 29 31 33 37 39 39 38 38 39 41 41 41 41 39 39 38 35 36 34 29 27 23 20 18 12 7 11 12 8 5 5 7 11 12 9 9 13 17 15 14 13 12 12 10 7 6 5
Wind_Direction
158 152 147 141 133 132 126 129 130 127 125 125 125 121 118 114 111 111 109 105 101 99 98 98 99 96 91 85 79 75 69 70 75 82 90 90 88 90 90 90 90 88 89 89 89 87 85 86 85 85 85 84 83 83 83 82 81 81 82 83 85 86 87 86 84 82 79 73 68 65 63 63 61 61 61 62 65 67 69 65 61 58 56 56 58
157 154 149 144 137 137 136 134 130 130 127 127 126 121 120 115 113 111 108 105 101 99 97 98 97 91 87 84 79 76 70 68 77 86 93 94 92 92 92 92 92 91 91 91 90 88 87 89 88 89 87 85 84 82 82 81 80 80 81 83 85 86 87 86 83 81 78 71 65 63 64 64 61 60 59 59 60 65 68 65 62 61 57 55 57
152 153 152 148 141 140 142 136 130 132 132 133 128 123 121 118 116 113 110 106 103 102 98 96 92 86 86 85 79 76 73 69 76 86 90 92 93 94 95 93 94 93 93 92 91 91 90 91 91 91 89 88 85 83 83 82 81 82 82 84 85 86 86 85 83 80 77 73 66 63 63 62 61 60 60 59 58 61 65 63 62 62 59 56 56
149 150 153 150 144 143 144 139 133 134 137 139 131 125 124 121 119 114 113 110 108 105 99 94 88 86 87 85 80 78 75 73 78 84 86 88 92 96 98 96 96 95 95 94 93 94 93 93 93 92 90 89 86 84 84 83 83 83 83 84 85 85 84 84 82 79 78 75 71 68 64 63 61 60 61 61 59 60 61 62 62 61 59 57 56
147 148 152 148 147 146 146 143 136 136 138 142 137 131 129 126 123 118 119 117 113 108 102 97 91 89 89 86 82 80 77 75 81 88 87 86 89 94 98 97 97 97 97 95 94 95 96 96 94 92 91 90 87 85 84 84 84 83 82 83 83 83 84 85 83 80 78 74 71 69 67 66 64 61 62 62 62 62 61 61 60 59 59 58 57
150 152 154 152 153 150 148 146 139 137 140 143 141 137 136 134 131 126 124 120 115 111 105 101 96 93 91 88 84 81 79 78 85 92 88 86 88 91 94 96 97 98 98 96 96 97 97 96 93 94 93 90 87 86 85 83 83 84 83 84 84 86 88 88 84 79 75 72 70 70 68 67 66 63 63 64 63 63 62 61 59 59 59 59 58
155 157 159 157 155 155 151 150 144 140 143 145 144 140 139 142 141 133 129 123 117 113 107 104 101 98 93 88 86 81 79 79 86 93 87 86 89 89 92 94 96 98 98 98 98 98 98 95 92 94 91 89 88 86 84 83 84 85 85 85 86 89 91 86 80 76 74 72 72 72 69 68 68 65 64 65 65 64 63 62 60 59 59 59 59
160 161 161 158 156 158 152 151 147 144 147 146 144 140 138 145 145 140 137 127 119 116 110 108 107 103 95 89 86 82 78 79 87 94 87 86 89 90 92 93 96 97 98 98 99 99 98 96 94 93 90 89 87 85 84 83 83 84 84 84 88 91 89 81 74 74 74 74 74 74 71 70 69 67 65 65 66 65 64 62 60 59 60 60 61
163 162 162 160 161 160 154 152 149 146 149 147 143 139 138 143 145 144 138 127 121 119 114 110 109 105 97 90 87 83 79 80 89 95 89 87 90 91 93 93 95 96 98 99 99 99 98 96 94 93 92 90 88 87 86 84 83 82 83 86 90 89 85 80 77 76 75 75 75 75 73 71 70 69 67 66 66 66 65 64 63 61 61 62 63
164 165 164 163 165 162 158 155 152 151 152 150 144 140 142 146 147 145 135 126 123 121 116 112 112 107 99 92 88 85 81 82 89 93 90 90 92 93 95 95 96 96 98 99 99 99 98 97 95 94 93 93 92 91 89 87 85 83 86 91 92 88 82 80 80 78 76 77 76 75 75 73 72 70 69 68 67 66 66 66 64 63 62 62 62
167 168 168 166 166 163 162 161 159 159 157 153 148 144 144 147 148 141 131 125 124 123 119 115 115 109 102 96 92 89 83 85 91 93 91 91 93 94 95 95 96 97 99 99 100 99 98 97 95 95 95 97 96 93 91 88 87 87 90 92 92 89 83 80 80 79 78 77 75 75 74 73 72 72 70 69 68 66 66 67 65 64 64 63 62
169 169 173 169 169 168 165 167 167 166 162 157 154 150 146 146 146 138 130 128 127 126 122 120 117 111 107 101 96 93 87 86 91 96 95 93 94 95 95 96 97 98 100 100 100 99 98 98 97 97 98 99 97 94 92 90 91 92 92 92 92 90 86 82 81 81 79 76 74 74 73 72 72 73 72 68 68 68 67 68 67 65 65 64 62
172 172 175 170 171 173 169 172 172 170 165 161 160 156 150 146 145 140 134 133 133 130 128 124 120 115 112 107 100 97 91 89 92 96 97 97 97 98 97 97 98 99 101 101 100 100 99 99 99 100 101 100 98 97 95 95 96 95 94 93 92 90 87 84 82 80 78 75 73 73 75 74 74 77 76 72 73 73 71 72 72 68 67 66 65
176 175 176 173 176 178 174 175 175 173 169 166 166 161 155 151 148 146 141 139 136 134 133 129 126 120 117 112 104 100 97 93 94 97 98 98 99 100 101 100 100 101 102 101 101 101 100 99 99 100 104 104 102 100 98 99 99 95 93 94 93 90 84 82 81 79 77 74 71 70 74 76 76 76 75 72 72 74 72 74 74 69 69 68 68
178 178 178 178 181 182 179 178 179 178 174 172 172 167 161 157 155 152 148 143 138 137 137 133 131 124 120 118 109 105 104 99 95 97 99 99 99 99 100 102 102 102 104 105 104 104 103 101 100 100 105 107 104 103 103 104 102 97 96 95 95 91 84 81 79 77 76 74 70 66 68 72 73 72 72 71 70 71 71 72 70 67 68 68 67
180 182 179 180 184 184 185 184 183 182 178 178 178 172 167 165 163 160 156 149 144 141 140 138 135 128 124 124 119 112 109 106 99 97 99 100 100 99 99 100 101 103 105 107 108 108 107 103 100 103 108 108 106 106 107 108 105 101 101 99 97 94 87 81 78 76 74 71 68 65 63 63 65 70 72 72 71 71 71 70 69 67 66 64 64
184 186 181 182 183 183 186 187 188 187 182 182 182 176 173 173 171 168 163 156 152 146 143 143 140 134 132 132 130 121 115 111 105 100 99 100 101 101 101 102 103 104 105 106 106 107 107 106 103 106 111 111 110 111 111 110 107 105 105 101 98 94 87 80 77 75 73 70 68 66 64 61 60 64 68 69 69 69 69 68 69 68 64 62 61
184 187 186 185 184 186 187 188 196 194 187 185 183 181 180 178 178 176 170 164 160 154 150 150 149 146 142 140 138 128 118 114 111 106 103 102 103 103 104 105 105 105 104 103 102 103 104 105 106 108 111 112 113 113 113 110 107 107 107 103 98 94 89 80 76 76 74 72 70 67 66 65 62 62 63 64 63 64 65 64 66 67 64 62 59
186 188 190 188 189 194 189 190 199 197 191 188 185 187 186 182 182 180 176 171 167 164 161 159 159 157 152 148 143 131 120 117 115 111 108 106 106 106 106 105 105 104 104 103 103 104 104 105 106 107 109 112 114 114 113 111 108 107 106 103 98 95 88 78 76 76 75 73 72 71 70 68 66 65 65 64 63 63 63 62 63 63 61 60 58
189 190 193 193 193 197 193 193 198 197 192 190 191 195 190 184 184 184 184 179 175 173 170 168 167 165 159 154 147 136 126 120 118 114 112 111 111 110 108 106 106 106 106 107 107 107 107 107 107 108 110 112 114 115 113 112 110 108 105 102 98 93 84 78 80 77 76 77 75 76 76 73 70 69 68 67 67 66 64 63 63 63 62 62 61
191 192 196 195 193 196 194 194 200 200 197 196 196 201 195 187 188 188 187 184 182 180 177 175 171 171 165 158 150 140 132 125 123 120 117 117 116 114 111 110 109 110 110 110 111 111 110 110 110 111 111 112 112 112 112 112 111 109 106 101 97 93 87 81 83 80 78 78 78 79 78 77 76 75 72 70 70 69 67 66 67 68 68 69 67
191 196 201 195 193 201 200 193 197 195 196 200 199 201 197 191 195 193 190 189 187 185 182 179 176 175 169 162 157 146 138 134 131 127 125 124 123 120 117 115 114 114 113 114 115 115 114 113 113 113 113 113 112 112 112 112 111 108 105 101 98 97 94 87 83 82 80 77 78 79 76 75 77 78 76 74 72 71 71 70 71 72 72 72 68
193 199 203 196 195 205 207 200 200 198 196 201 203 202 197 195 197 193 192 193 190 189 187 184 181 177 173 170 164 154 147 143 141 136 134 132 129 126 123 120 120 120 120 120 121 119 118 116 115 114 115 114 114 115 115 114 112 109 105 102 101 102 101 95 88 85 84 81 78 77 75 72 71 75 77 76 74 74 75 74 73 74 72 70 65
196 198 200 196 197 204 209 212 212 211 203 201 206 203 199 199 197 193 196 197 193 194 192 188 185 179 177 177 169 160 156 152 149 145 138 136 134 129 126 125 124 126 125 123 122 120 118 117 117 117 117 115 115 116 116 116 114 111 107 105 105 105 104 101 96 91 89 86 81 78 78 75 73 74 76 78 78 75 76 76 73 72 70 67 65
198 198 200 197 198 203 205 208 210 210 206 206 211 206 202 204 205 201 198 200 200 200 199 193 188 186 185 181 176 169 163 162 157 152 145 140 138 132 128 129 129 129 126 123 122 121 121 122 122 120 118 117 117 117 117 116 115 112 110 108 107 106 107 106 102 97 92 90 86 83 80 78 76 75 74 76 78 76 74 74 72 70 68 67 67
202 199 200 200 203 207 206 206 204 206 209 209 212 210 208 211 212 208 201 202 203 204 203 199 192 190 190 184 180 177 170 169 165 160 155 148 143 140 138 135 133 131 129 127 126 126 126 127 125 123 121 119 118 118 117 117 115 114 112 109 107 108 110 109 106 101 96 93 91 88 84 81 79 76 74 73 74 77 74 71 71 71 70 69 67
207 205 202 203 207 211 213 217 217 217 215 209 211 213 213 215 215 213 207 204 204 207 206 202 197 192 193 188 183 181 176 175 173 168 163 158 153 148 146 141 137 136 135 133 132 132 131 130 128 125 123 120 118 117 117 117 117 115 112 110 108 108 109 110 110 106 101 99 98 95 89 84 82 79 78 77 74 74 74 72 69 70 70 68 67
208 209 210 209 210 213 219 225 224 224 217 210 214 218 221 222 219 216 211 211 211 208 209 208 204 199 197 195 189 185 183 179 176 175 170 167 163 157 153 148 145 142 140 140 137 136 136 134 130 127 124 121 119 118 118 118 117 115 112 108 106 107 109 111 113 111 108 105 105 102 95 88 85 82 78 77 74 72 73 73 71 69 69 68 67
208 209 213 212 212 216 222 227 226 227 220 216 221 223 227 225 216 212 211 216 215 207 209 213 210 205 202 199 195 191 191 187 180 180 177 175 175 170 164 157 152 150 146 145 142 140 140 137 134 131 128 125 123 122 122 121 118 115 111 108 107 108 110 112 114 115 113 110 108 108 103 95 88 82 79 78 76 74 74 73 72 70 70 68 67
210 210 213 212 212 214 216 220 226 228 222 220 226 225 226 220 208 206 210 215 217 216 214 214 213 209 206 203 200 199 199 196 190 187 182 182 183 178 173 166 160 159 156 152 149 146 145 142 139 137 134 131 129 127 126 124 121 117 113 110 109 111 112 113 114 115 115 112 110 109 106 100 93 84 80 80 78 77 75 73 71 69 69 67 66
209 210 215 215 213 214 216 222 229 227 218 216 222 223 222 219 208 208 217 215 216 222 219 214 210 207 208 206 205 209 205 201 199 195 187 186 186 181 178 174 167 167 168 162 157 153 151 148 145 142 140 136 132 130 128 125 122 119 115 113 112 114 114 115 115 114 113 112 110 108 105 101 99 93 85 81 79 80 78 73 71 69 68 66 64
210 210 215 217 216 220 225 228 230 224 218 217 220 221 222 222 216 214 222 218 213 215 219 217 206 202 212 211 207 209 206 202 202 201 196 191 189 185 182 179 176 175 175 172 166 160 157 154 151 149 145 139 133 132 130 127 124 122 118 116 116 118 117 117 116 114 113 112 111 109 104 99 99 99 97 93 90 88 83 76 73 70 67 67 66
214 212 214 219 218 222 226 227 229 225 222 222 223 225 225 227 225 222 222 221 218 218 223 222 212 213 219 212 204 202 201 201 200 201 199 193 191 188 185 183 181 182 180 178 175 168 163 159 154 152 149 143 138 136 133 130 127 125 121 119 120 121 121 120 118 117 116 113 112 109 106 103 99 98 100 103 103 99 92 83 77 73 70 69 68
216 215 218 221 218 220 224 224 227 227 225 224 225 226 225 229 229 226 225 225 229 231 229 224 222 227 221 208 203 203 202 199 200 205 201 194 192 190 188 186 184 186 185 181 180 174 167 163 159 156 151 145 141 137 135 132 129 126 124 123 124 125 125 124 120 118 115 112 111 110 109 108 107 105 100 101 106 107 104 97 87 77 72 70 69
217 219 220 219 217 220 221 221 223 225 226 226 226 227 226 228 229 228 229 229 234 235 228 221 221 222 215 207 208 209 204 200 204 208 207 199 193 190 190 189 188 189 189 187 184 178 172 167 163 160 153 146 142 137 135 135 132 130 127 126 127 128 126 124 121 118 115 114 113 114 114 114 114 113 109 104 101 104 106 106 102 91 80 73 70
219 221 220 216 216 219 219 220 222 223 225 227 228 228 226 227 228 225 227 227 229 230 221 217 217 215 213 214 216 212 204 207 213 210 212 205 196 194 194 192 190 189 190 188 186 181 176 170 165 162 156 149 146 140 137 138 135 131 129 129 131 130 128 124 123 122 120 120 119 118 117 116 115 113 111 109 102 99 98 100 103 103 95 84 76
221 221 219 216 214 217 219 219 221 224 226 227 228 228 224 226 228 220 219 223 229 233 220 213 216 214 214 217 218 212 207 213 218 214 215 208 200 198 197 195 193 191 189 187 187 184 179 174 168 163 159 154 151 145 141 139 136 133 131 134 135 133 132 131 129 128 126 124 122 121 118 115 114 112 110 108 106 102 98 95 93 97 99 95 88
224 222 220 218 215 216 219 218 222 225 229 231 231 228 221 222 227 221 219 225 230 233 224 218 220 217 213 214 215 213 214 219 220 216 214 208 202 199 197 195 192 190 188 185 187 185 181 178 172 166 161 158 154 150 146 142 136 133 133 136 139 137 137 137 135 132 129 127 125 122 119 117 114 111 111 109 107 105 100 98 95 92 93 93 91
225 223 221 218 216 217 219 220 223 226 232 232 226 218 213 216 219 219 221 224 226 230 227 221 221 220 215 213 214 216 219 222 221 217 211 205 202 199 198 196 190 187 184 182 184 184 180 178 173 167 162 159 157 155 150 143 136 134 135 137 139 140 140 141 139 136 133 130 128 125 121 119 116 112 112 110 108 107 104 102 100 95 90 87 85
224 222 219 217 216 217 218 219 221 224 227 221 207 203 206 209 210 215 220 217 220 226 222 216 218 223 220 216 216 219 221 221 218 215 212 207 201 199 199 195 191 187 183 182 185 186 182 179 174 169 165 160 158 156 153 145 134 129 130 132 136 141 143 143 143 140 138 135 132 129 126 121 120 120 118 117 116 114 112 109 105 99 91 84 79
221 219 218 217 216 216 216 216 217 217 215 207 201 201 201 201 204 210 215 211 212 218 218 217 221 223 221 220 221 223 223 218 212 212 212 206 199 197 194 191 191 192 191 191 191 188 184 180 174 170 168 163 158 157 155 148 134 124 123 123 126 136 143 147 148 146 143 141 138 134 132 131 131 132 131 130 131 127 124 118 109 103 95 88 80
217 216 215 215 214 214 215 215 215 214 210 206 203 202 200 200 201 205 209 207 206 212 219 221 222 221 221 223 221 218 217 211 206 206 207 205 201 197 193 192 195 196 195 194 191 186 183 181 176 169 166 165 163 162 159 153 142 138 135 126 121 129 140 148 150 151 149 144 144 144 143 145 145 145 144 143 143 138 133 126 117 110 101 94 85
216 215 213 212 211 213 214 214 215 214 208 206 204 201 201 202 204 205 206 206 206 213 219 219 221 223 222 220 212 204 204 205 204 203 202 203 203 201 200 202 203 198 192 187 185 184 184 184 181 174 167 164 165 166 166 164 153 146 141 139 153 152 152 167 160 153 156 152 153 155 154 155 155 154 153 152 151 146 139 132 125 117 105 92 79
213 213 211 210 211 213 214 212 213 212 204 205 204 199 201 203 206 209 210 212 214 215 215 216 220 220 214 208 201 197 200 203 204 205 205 205 205 207 211 210 205 200 194 187 185 185 187 186 182 179 175 168 166 169 174 174 163 154 148 148 166 176 200 179 162 154 161 163 163 164 163 162 162 161 161 161 158 155 149 142 134 122 108 89 72
211 214 213 211 211 212 211 208 209 210 203 203 203 200 201 201 201 205 209 212 212 208 207 209 212 209 204 198 197 199 199 200 201 205 209 211 212 214 216 212 205 201 197 193 190 190 191 189 186 185 184 180 175 175 180 182 176 172 166 145 158 208 213 157 152 156 166 172 174 174 172 169 168 169 168 169 167 164 162 154 145 132 114 93 76
215 216 215 213 210 207 205 202 206 209 203 201 203 203 203 201 198 197 196 196 197 199 203 206 205 203 201 199 198 198 196 198 201 205 211 217 218 218 216 212 205 201 199 198 194 192 192 193 191 190 190 189 184 180 184 188 187 187 187 180 188 241 160 153 157 159 162 183 189 182 183 180 177 177 176 176 176 176 174 169 162 155 138 105 84
216 215 212 211 208 204 202 201 205 208 204 205 206 204 203 202 201 199 197 195 197 202 206 208 205 203 202 201 198 198 198 200 203 209 215 219 219 218 217 213 206 201 199 197 194 193 195 196 196 195 194 194 191 185 186 190 192 198 204 202 208 220 167 165 167 155 156 185 193 187 193 191 185 185 185 183 184 184 184 183 179 179 175 125 87
214 211 209 209 207 205 205 202 203 205 205 208 206 204 205 203 202 203 204 205 207 210 210 208 206 204 205 204 201 201 201 202 204 209 215 217 217 216 215 212 205 202 200 197 195 196 198 199 198 198 197 199 199 193 190 191 193 201 209 212 219 210 183 176 169 162 154 164 176 184 197 198 194 192 191 188 189 190 191 194 194 195 201 179 94
214 213 213 211 207 205 206 203 202 202 205 208 207 207 208 206 205 205 206 207 209 213 213 209 207 208 209 209 206 203 202 203 205 208 210 211 212 212 211 209 204 202 201 200 200 200 201 201 200 199 199 202 203 198 196 196 196 201 207 209 213 197 188 189 180 171 158 151 172 180 182 189 199 203 199 194 193 195 197 201 204 204 207 217 257
216 216 213 210 205 202 203 202 202 203 205 206 206 208 210 208 208 207 206 207 205 207 209 208 208 210 211 209 206 204 202 203 206 207 208 208 207 209 209 208 207 205 201 201 203 205 205 203 203 203 203 204 203 201 203 202 200 205 207 204 200 187 183 194 191 183 173 160 167 175 176 179 188 199 203 200 196 198 203 206 209 210 214 230 259
212 210 205 203 202 200 201 202 201 203 206 206 206 209 210 209 209 207 208 210 208 205 205 206 207 207 208 207 206 205 203 205 207 206 208 208 206 208 211 211 212 210 205 204 207 208 207 206 206 206 206 207 206 205 209 207 204 209 211 206 202 195 187 190 191 189 186 176 161 163 175 182 182 184 198 204 202 202 207 210 213 213 216 230 251